Location: *
(51.8167°N, 12.5000°E)
Time: 15:07:10
(UTC+00:00)

ATLAS CENTAUR R/B - Pass Details

Date: 16 September 2019
Orbit: 450 x 698 km, 64.7° (Epoch: 19 October)

Event Time Altitude Azimuth Distance (km) Brightness Sun altitude
Exits shadow 23:20:06 22° 25° (NNE) 1,470 4.0 -35.6°
Drops below altitude 10° 23:22:00 10° 36° (NE) 2,118 4.9 -35.6°
Sets 23:24:23 0° 43° (NE) 3,006 5.7 -35.6°
